This is the latest recevied weather packets stored in our database for station/object KN6KS. If no packets are shown the sender has not sent any weather packets the latest 10 day(s).
| Time | Temp. | Humidity | Pressure | Rain* | Wind** | Luminosity | Snow |
|---|---|---|---|---|---|---|---|
| 1777994154 | 12.22° C | 64% | 1011.6 hPa | 0 mm | - | 254 W/m² | - |
| 1777993852 | 12.22° C | 63% | 1011.6 hPa | 0 mm | - | 275 W/m² | - |
| 1777993548 | 12.22° C | 63% | 1011.6 hPa | 0 mm | - | 145 W/m² | - |
| 1777993244 | 12.22° C | 64% | 1011.4 hPa | 0 mm | - | 236 W/m² | - |
| 1777992940 | 11.67° C | 65% | 1011.5 hPa | 0 mm | - | 198 W/m² | - |
| 1777992639 | 11.67° C | 66% | 1011.6 hPa | 0 mm | - | 182 W/m² | - |
| 1777992337 | 11.67° C | 66% | 1011.6 hPa | 0 mm | - | 160 W/m² | - |
| 1777992034 | 11.67° C | 67% | 1011.7 hPa | 0 mm | - | 153 W/m² | - |
| 1777991731 | 11.67° C | 67% | 1011.7 hPa | 0 mm | - | 138 W/m² | - |
| 1777991428 | 11.11° C | 68% | 1011.7 hPa | 0 mm | - | 131 W/m² | - |
| 1777991125 | 11.11° C | 69% | 1011.8 hPa | 0 mm | - | 83 W/m² | - |
| 1777990823 | 11.11° C | 69% | 1011.6 hPa | 0 mm | - | 102 W/m² | - |
| 1777990520 | 11.11° C | 68% | 1011.5 hPa | 0 mm | - | 94 W/m² | - |
| 1777989914 | 10.56° C | 71% | 1011.5 hPa | 0 mm | - | 56 W/m² | - |
| 1777989610 | 10° C | 71% | 1011.5 hPa | 0 mm | - | 50 W/m² | - |
| 1777989306 | 10° C | 71% | 1011.5 hPa | 0 mm | - | 38 W/m² | - |
| 1777989003 | 10° C | 71% | 1011.6 hPa | 0 mm | - | 33 W/m² | - |
| 1777988699 | 10° C | 71% | 1011.4 hPa | 0 mm | - | 36 W/m² | - |
| 1777988396 | 10° C | 71% | 1011.5 hPa | 0 mm | - | 28 W/m² | - |
| 1777988093 | 10° C | 71% | 1011.5 hPa | 0 mm | - | 24 W/m² | - |
| 1777987788 | 10° C | 70% | 1011.4 hPa | 0 mm | - | 20 W/m² | - |
| 1777987485 | 10° C | 70% | 1011.3 hPa | 0 mm | - | 16 W/m² | - |
| 1777987183 | 10.56° C | 69% | 1011.3 hPa | 0 mm | - | 13 W/m² | - |
| 1777986880 | 10.56° C | 69% | 1011.5 hPa | 0 mm | - | 9 W/m² | - |
| 1777986578 | 10.56° C | 68% | 1011.4 hPa | 0 mm | - | 6 W/m² | - |
* Rain latest hour (hover to see other rain measurements)
** Current wind speed in m/s (hover to see current wind gust speed)